TimePST,TemperatureF,Dew PointF,Humidity,Sea Level PressureIn,VisibilityMPH,Wind Direction,Wind SpeedMPH,Gust SpeedMPH,PrecipitationIn,Events,Conditions,WindDirDegrees,DateUTC
12:56 AM,48.9,37.0,64,30.19,10.0,Calm,Calm,-,N/A,,Clear,0,2013-11-26 08:56:00
1:56 AM,46.9,37.0,68,30.18,10.0,Calm,Calm,-,N/A,,Clear,0,2013-11-26 09:56:00
2:56 AM,46.9,37.0,68,30.18,10.0,Calm,Calm,-,N/A,,Clear,0,2013-11-26 10:56:00
3:56 AM,46.0,37.0,71,30.18,10.0,Calm,Calm,-,N/A,,Clear,0,2013-11-26 11:56:00
4:56 AM,45.0,36.0,71,30.16,10.0,SSE,3.5,-,N/A,,Clear,150,2013-11-26 12:56:00
5:56 AM,45.0,36.0,71,30.17,10.0,Variable,4.6,-,N/A,,Clear,0,2013-11-26 13:56:00
6:56 AM,44.1,36.0,73,30.18,10.0,SSE,3.5,-,N/A,,Mostly Cloudy,160,2013-11-26 14:56:00
7:56 AM,46.9,37.9,71,30.19,10.0,Calm,Calm,-,N/A,,Mostly Cloudy,0,2013-11-26 15:56:00
8:56 AM,53.1,41.0,64,30.19,10.0,Calm,Calm,-,N/A,,Mostly Cloudy,0,2013-11-26 16:56:00
9:56 AM,62.1,39.0,43,30.17,10.0,Calm,Calm,-,N/A,,Mostly Cloudy,0,2013-11-26 17:56:00
10:56 AM,68.0,37.9,33,30.14,10.0,Calm,Calm,-,N/A,,Mostly Cloudy,0,2013-11-26 18:56:00
11:56 AM,72.0,35.1,26,30.12,10.0,West,9.2,-,N/A,,Mostly Cloudy,260,2013-11-26 19:56:00
12:56 PM,72.0,37.0,28,30.10,10.0,Calm,Calm,-,N/A,,Mostly Cloudy,0,2013-11-26 20:56:00
1:56 PM,73.0,35.1,25,30.06,10.0,WSW,6.9,-,N/A,,Mostly Cloudy,240,2013-11-26 21:56:00
2:56 PM,71.1,35.1,27,30.06,10.0,SW,4.6,-,N/A,,Mostly Cloudy,220,2013-11-26 22:56:00
3:56 PM,69.1,35.1,29,30.05,10.0,Calm,Calm,-,N/A,,Mostly Cloudy,0,2013-11-26 23:56:00
4:56 PM,63.0,43.0,48,30.06,10.0,NW,5.8,-,N/A,,Mostly Cloudy,310,2013-11-27 00:56:00
5:56 PM,60.1,44.1,55,30.06,10.0,Calm,Calm,-,N/A,,Mostly Cloudy,0,2013-11-27 01:56:00
6:56 PM,55.9,42.1,60,30.07,10.0,SSE,3.5,-,N/A,,Clear,150,2013-11-27 02:56:00
7:56 PM,55.9,42.1,60,30.08,10.0,Calm,Calm,-,N/A,,Clear,0,2013-11-27 03:56:00
8:56 PM,53.1,39.0,59,30.08,10.0,Calm,Calm,-,N/A,,Clear,0,2013-11-27 04:56:00
9:56 PM,53.1,39.9,61,30.07,10.0,SE,3.5,-,N/A,,Clear,130,2013-11-27 05:56:00
10:56 PM,52.0,39.9,63,30.06,10.0,Calm,Calm,-,N/A,,Clear,0,2013-11-27 06:56:00
11:56 PM,50.0,39.0,66,30.04,10.0,Calm,Calm,-,N/A,,Clear,0,2013-11-27 07:56:00